| time (UTC) | temp F | wind direction | speed MPH | gust MPH | rain 1hr in | rain 24hr in | rain mn in | humidity % | barometer mb |
| 20260504043800 | 65 | 152 | 0.0 | 0.0 | 0.00 | 0.00 | 0.00 | 58 | 1014.2 |
| 20260504043257 | 66 | 148 | 0.0 | 1.0 | 0.00 | 0.00 | 0.00 | 56 | 1014.4 |
| 20260504042755 | 66 | 144 | 0.0 | 0.0 | 0.00 | 0.00 | 0.00 | 56 | 1014.3 |
| 20260504042251 | 66 | 144 | 1.0 | 2.0 | 0.00 | 0.00 | 0.00 | 55 | 1014.7 |
| 20260504041747 | 66 | 143 | 0.0 | 0.0 | 0.00 | 0.00 | 0.00 | 55 | 1014.5 |
| 20260504041243 | 66 | 144 | 0.0 | 0.0 | 0.00 | 0.00 | 0.00 | 56 | 1014.3 |
| 20260504040739 | 65 | 145 | 0.0 | 1.0 | 0.00 | 0.00 | 0.00 | 56 | 1014.7 |
| 20260504040238 | 65 | 154 | 0.0 | 0.0 | 0.00 | 0.00 | 0.00 | 56 | 1014.6 |
| 20260504035733 | 65 | 138 | 0.0 | 0.0 | 0.00 | 0.00 | 0.00 | 58 | 1014.6 |
| 20260504035231 | 64 | 138 | 0.0 | 0.0 | 0.00 | 0.00 | 0.00 | 59 | 1014.6 |
| 20260504034728 | 64 | 138 | 0.0 | 0.0 | 0.00 | 0.00 | 0.00 | 60 | 1014.5 |
| 20260504034225 | 64 | 146 | 0.0 | 0.0 | 0.00 | 0.00 | 0.00 | 60 | 1014.6 |
| 20260504033723 | 64 | 144 | 0.0 | 0.0 | 0.00 | 0.00 | 0.00 | 60 | 1014.6 |
| 20260504033220 | 64 | 145 | 0.0 | 0.0 | 0.00 | 0.00 | 0.00 | 59 | 1014.7 |
| 20260504032717 | 64 | 141 | 0.0 | 0.0 | 0.00 | 0.00 | 0.00 | 59 | 1014.7 |
| 20260504032214 | 64 | 143 | 0.0 | 0.0 | 0.00 | 0.00 | 0.00 | 59 | 1014.5 |
| 20260504031711 | 64 | 145 | 0.0 | 0.0 | 0.00 | 0.00 | 0.00 | 58 | 1014.5 |
| 20260504031208 | 64 | 144 | 0.0 | 0.0 | 0.00 | 0.00 | 0.00 | 59 | 1014.8 |
| 20260504030704 | 64 | 140 | 0.0 | 0.0 | 0.00 | 0.00 | 0.00 | 59 | 1014.7 |
| 20260504030201 | 65 | 139 | 0.0 | 0.0 | 0.00 | 0.00 | 0.00 | 58 | 1014.4 |
| 20260504025657 | 66 | 149 | 0.0 | 0.0 | 0.00 | 0.00 | 0.00 | 57 | 1014.5 |
| 20260504025155 | 66 | 138 | 0.0 | 0.0 | 0.00 | 0.00 | 0.00 | 55 | 1014.5 |
| 20260504024652 | 67 | 142 | 0.0 | 0.0 | 0.00 | 0.00 | 0.00 | 55 | 1014.3 |
| 20260504024148 | 67 | 149 | 0.0 | 0.0 | 0.00 | 0.00 | 0.00 | 54 | 1014.7 |
| 20260504023645 | 67 | 141 | 0.0 | 0.0 | 0.00 | 0.00 | 0.00 | 54 | 1014.5 |
| 20260504023141 | 67 | 140 | 0.0 | 0.0 | 0.00 | 0.00 | 0.00 | 54 | 1014.7 |
| 20260504022637 | 67 | 140 | 0.0 | 0.0 | 0.00 | 0.00 | 0.00 | 54 | 1014.7 |
| 20260504022133 | 68 | 140 | 0.0 | 0.0 | 0.00 | 0.00 | 0.00 | 53 | 1014.5 |
| 20260504021631 | 68 | 140 | 0.0 | 0.0 | 0.00 | 0.00 | 0.00 | 52 | 1014.1 |
| 20260504021127 | 68 | 141 | 0.0 | 0.0 | 0.00 | 0.00 | 0.00 | 52 | 1014.0 |
| 20260504020625 | 68 | 141 | 0.0 | 0.0 | 0.00 | 0.00 | 0.00 | 51 | 1014.0 |
| 20260504020121 | 68 | 141 | 0.0 | 0.0 | 0.00 | 0.00 | 0.00 | 51 | 1014.0 |
| 20260504015617 | 69 | 140 | 0.0 | 0.0 | 0.00 | 0.00 | 0.00 | 50 | 1013.9 |
| 20260504015114 | 69 | 148 | 0.0 | 0.0 | 0.00 | 0.00 | 0.00 | 50 | 1014.2 |
| 20260504014610 | 69 | 141 | 0.0 | 0.0 | 0.00 | 0.00 | 0.00 | 49 | 1014.0 |
| 20260504014107 | 70 | 140 | 0.0 | 0.0 | 0.00 | 0.00 | 0.00 | 49 | 1014.2 |
| 20260504013604 | 70 | 143 | 0.0 | 0.0 | 0.00 | 0.00 | 0.00 | 48 | 1014.2 |
| 20260504013101 | 70 | 178 | 0.0 | 1.0 | 0.00 | 0.00 | 0.00 | 47 | 1013.9 |
| 20260504012558 | 71 | 140 | 0.0 | 0.0 | 0.00 | 0.00 | 0.00 | 47 | 1014.0 |
| 20260504012057 | 71 | 144 | 0.0 | 0.0 | 0.00 | 0.00 | 0.00 | 46 | 1014.0 |
| 20260504011553 | 72 | 141 | 0.0 | 0.0 | 0.00 | 0.00 | 0.00 | 45 | 1014.1 |
| 20260504011049 | 73 | 162 | 0.0 | 1.0 | 0.00 | 0.00 | 0.00 | 44 | 1014.2 |
| 20260504010545 | 74 | 135 | 0.0 | 0.0 | 0.00 | 0.00 | 0.00 | 42 | 1014.0 |
| 20260504010041 | 75 | 133 | 0.0 | 0.0 | 0.00 | 0.00 | 0.00 | 41 | 1014.0 |
| 20260504005538 | 76 | 133 | 0.0 | 0.0 | 0.00 | 0.00 | 0.00 | 41 | 1014.0 |
| 20260504005035 | 77 | 141 | 0.0 | 0.0 | 0.00 | 0.00 | 0.00 | 39 | 1014.0 |
| 20260504004533 | 77 | 139 | 0.0 | 1.0 | 0.00 | 0.00 | 0.00 | 39 | 1014.1 |
| 20260504004030 | 78 | 138 | 0.0 | 0.0 | 0.00 | 0.00 | 0.00 | 37 | 1014.1 |
| 20260504003526 | 78 | 143 | 0.0 | 0.0 | 0.00 | 0.00 | 0.00 | 37 | 1014.2 |
| 20260504003023 | 78 | 188 | 2.0 | 3.0 | 0.00 | 0.00 | 0.00 | 36 | 1014.2 |
| 20260504002520 | 77 | 153 | 0.0 | 0.0 | 0.00 | 0.00 | 0.00 | 37 | 1014.0 |
| 20260504002017 | 77 | 152 | 0.0 | 0.0 | 0.00 | 0.00 | 0.00 | 37 | 1014.3 |
| 20260504001515 | 77 | 155 | 1.0 | 2.0 | 0.00 | 0.00 | 0.00 | 36 | 1014.5 |
| 20260504001011 | 77 | 196 | 0.0 | 1.0 | 0.00 | 0.00 | 0.00 | 37 | 1014.2 |
| 20260504000508 | 77 | 171 | 3.0 | 5.0 | 0.00 | 0.00 | 0.00 | 36 | 1014.2 |
| 20260504000005 | 77 | 176 | 2.0 | 3.0 | 0.00 | 0.00 | 0.00 | 37 | 1014.3 |
| 20260503235504 | 77 | 220 | 7.0 | 8.0 | 0.00 | 0.00 | 0.00 | 38 | 1014.3 |
| 20260503235000 | 78 | 205 | 1.0 | 3.0 | 0.00 | 0.00 | 0.00 | 37 | 1014.4 |
| 20260503234458 | 80 | 164 | 2.0 | 3.0 | 0.00 | 0.00 | 0.00 | 36 | 1014.2 |
| 20260503233956 | 78 | 196 | 7.0 | 8.0 | 0.00 | 0.00 | 0.00 | 35 | 1014.3 |
| 20260503233452 | 78 | 198 | 1.0 | 2.0 | 0.00 | 0.00 | 0.00 | 39 | 1014.3 |
| 20260503232948 | 78 | 151 | 0.0 | 0.0 | 0.00 | 0.00 | 0.00 | 37 | 1014.2 |
| 20260503232445 | 79 | 179 | 2.0 | 5.0 | 0.00 | 0.00 | 0.00 | 37 | 1014.2 |
| 20260503231943 | 80 | 217 | 6.0 | 7.0 | 0.00 | 0.00 | 0.00 | 35 | 1014.3 |
| 20260503231440 | 80 | 220 | 3.0 | 6.0 | 0.00 | 0.00 | 0.00 | 35 | 1014.4 |
| 20260503230937 | 81 | 220 | 2.0 | 3.0 | 0.00 | 0.00 | 0.00 | 35 | 1014.5 |
| 20260503230433 | 80 | 211 | 3.0 | 3.0 | 0.00 | 0.00 | 0.00 | 34 | 1014.3 |
| 20260503225931 | 82 | 199 | 6.0 | 8.0 | 0.00 | 0.00 | 0.00 | 32 | 1014.4 |
| 20260503225428 | 80 | 200 | 6.0 | 7.0 | 0.00 | 0.00 | 0.00 | 35 | 1014.5 |
| 20260503224923 | 81 | 154 | 1.0 | 2.0 | 0.00 | 0.00 | 0.00 | 32 | 1014.6 |
| 20260503224420 | 80 | 173 | 2.0 | 5.0 | 0.00 | 0.00 | 0.00 | 34 | 1014.5 |
| 20260503223918 | 80 | 224 | 9.0 | 9.0 | 0.00 | 0.00 | 0.00 | 36 | 1015.0 |
| 20260503223416 | 81 | 205 | 5.0 | 6.0 | 0.00 | 0.00 | 0.00 | 34 | 1014.7 |
| 20260503222916 | 81 | 173 | 1.0 | 2.0 | 0.00 | 0.00 | 0.00 | 32 | 1014.8 |
| 20260503222415 | 82 | 189 | 1.0 | 2.0 | 0.00 | 0.00 | 0.00 | 34 | 1014.8 |
| 20260503221913 | 83 | 184 | 8.0 | 15.0 | 0.00 | 0.00 | 0.00 | 32 | 1014.8 |
| 20260503221411 | 83 | 220 | 6.0 | 11.0 | 0.00 | 0.00 | 0.00 | 32 | 1015.1 |
| 20260503220907 | 81 | 208 | 4.0 | 6.0 | 0.00 | 0.00 | 0.00 | 37 | 1014.9 |
| 20260503220404 | 82 | 226 | 6.0 | 8.0 | 0.00 | 0.00 | 0.00 | 33 | 1015.0 |
| 20260503215901 | 83 | 179 | 1.0 | 1.0 | 0.00 | 0.00 | 0.00 | 32 | 1015.1 |
| 20260503215358 | 83 | 133 | 1.0 | 2.0 | 0.00 | 0.00 | 0.00 | 33 | 1015.1 |
| 20260503214855 | 82 | 198 | 0.0 | 1.0 | 0.00 | 0.00 | 0.00 | 32 | 1015.1 |
| 20260503214353 | 82 | 189 | 2.0 | 2.0 | 0.00 | 0.00 | 0.00 | 32 | 1015.0 |
| 20260503213850 | 81 | 216 | 9.0 | 11.0 | 0.00 | 0.00 | 0.00 | 34 | 1015.5 |
| 20260503213348 | 81 | 228 | 11.0 | 17.0 | 0.00 | 0.00 | 0.00 | 33 | 1015.5 |
| 20260503212844 | 81 | 200 | 4.0 | 5.0 | 0.00 | 0.00 | 0.00 | 33 | 1015.5 |
| 20260503212342 | 82 | 219 | 9.0 | 11.0 | 0.00 | 0.00 | 0.00 | 32 | 1015.8 |
| 20260503211839 | 82 | 170 | 2.0 | 3.0 | 0.00 | 0.00 | 0.00 | 35 | 1015.7 |
| 20260503211336 | 81 | 154 | 0.0 | 1.0 | 0.00 | 0.00 | 0.00 | 31 | 1015.9 |
| 20260503210831 | 81 | 214 | 6.0 | 7.0 | 0.00 | 0.00 | 0.00 | 31 | 1015.9 |
| 20260503210329 | 80 | 219 | 7.0 | 8.0 | 0.00 | 0.00 | 0.00 | 34 | 1016.2 |
| 20260503205823 | 80 | 209 | 9.0 | 10.0 | 0.00 | 0.00 | 0.00 | 34 | 1016.4 |
| 20260503205320 | 82 | 123 | 5.0 | 8.0 | 0.00 | 0.00 | 0.00 | 33 | 1016.0 |
| 20260503204817 | 80 | 139 | 3.0 | 7.0 | 0.00 | 0.00 | 0.00 | 34 | 1016.2 |
| 20260503204315 | 80 | 244 | 12.0 | 14.0 | 0.00 | 0.00 | 0.00 | 35 | 1016.3 |
| 20260503203812 | 81 | 212 | 7.0 | 8.0 | 0.00 | 0.00 | 0.00 | 29 | 1016.7 |
| 20260503203309 | 80 | 219 | 9.0 | 10.0 | 0.00 | 0.00 | 0.00 | 31 | 1016.4 |
| 20260503202806 | 81 | 231 | 8.0 | 9.0 | 0.00 | 0.00 | 0.00 | 35 | 1016.6 |
| 20260503202304 | 80 | 215 | 12.0 | 15.0 | 0.00 | 0.00 | 0.00 | 35 | 1016.9 |
| 20260503201801 | 80 | 222 | 14.0 | 17.0 | 0.00 | 0.00 | 0.00 | 35 | 1016.8 |
| 20260503201258 | 80 | 204 | 9.0 | 10.0 | 0.00 | 0.00 | 0.00 | 36 | 1017.0 |
| 20260503200756 | 81 | 198 | 4.0 | 5.0 | 0.00 | 0.00 | 0.00 | 33 | 1017.0 |
| 20260503200251 | 80 | 207 | 9.0 | 10.0 | 0.00 | 0.00 | 0.00 | 31 | 1017.1 |
| 20260503195749 | 79 | 217 | 8.0 | 9.0 | 0.00 | 0.00 | 0.00 | 32 | 1017.2 |
| 20260503195245 | 80 | 196 | 7.0 | 9.0 | 0.00 | 0.00 | 0.00 | 34 | 1017.3 |
| 20260503194743 | 80 | 214 | 10.0 | 10.0 | 0.00 | 0.00 | 0.00 | 32 | 1017.4 |
| 20260503194238 | 79 | 159 | 1.0 | 2.0 | 0.00 | 0.00 | 0.00 | 35 | 1017.5 |
| 20260503193735 | 79 | 227 | 11.0 | 13.0 | 0.00 | 0.00 | 0.00 | 35 | 1017.6 |
| 20260503193231 | 80 | 227 | 13.0 | 15.0 | 0.00 | 0.00 | 0.00 | 34 | 1017.5 |
| 20260503192727 | 80 | 216 | 12.0 | 13.0 | 0.00 | 0.00 | 0.00 | 35 | 1017.6 |
| 20260503192222 | 81 | 211 | 6.0 | 8.0 | 0.00 | 0.00 | 0.00 | 31 | 1017.8 |
| 20260503191719 | 81 | 158 | 1.0 | 3.0 | 0.00 | 0.00 | 0.00 | 32 | 1017.8 |
| 20260503191216 | 80 | 205 | 15.0 | 18.0 | 0.00 | 0.00 | 0.00 | 34 | 1017.9 |
| 20260503190713 | 80 | 229 | 12.0 | 13.0 | 0.00 | 0.00 | 0.00 | 36 | 1017.9 |
| 20260503190210 | 79 | 217 | 9.0 | 11.0 | 0.00 | 0.00 | 0.00 | 32 | 1017.9 |
| 20260503185707 | 80 | 224 | 12.0 | 14.0 | 0.00 | 0.00 | 0.00 | 36 | 1017.9 |
| 20260503185202 | 80 | 126 | 1.0 | 2.0 | 0.00 | 0.00 | 0.00 | 34 | 1018.0 |
| 20260503184657 | 80 | 225 | 10.0 | 10.0 | 0.00 | 0.00 | 0.00 | 37 | 1018.2 |
| 20260503184154 | 78 | 202 | 6.0 | 8.0 | 0.00 | 0.00 | 0.00 | 37 | 1018.2 |
| 20260503183650 | 78 | 223 | 9.0 | 9.0 | 0.00 | 0.00 | 0.00 | 35 | 1018.4 |
| 20260503183148 | 78 | 225 | 17.0 | 18.0 | 0.00 | 0.00 | 0.00 | 34 | 1018.2 |
| 20260503182646 | 79 | 225 | 12.0 | 13.0 | 0.00 | 0.00 | 0.00 | 34 | 1018.4 |
| 20260503182144 | 80 | 192 | 4.0 | 5.0 | 0.00 | 0.00 | 0.00 | 34 | 1018.7 |
| 20260503181640 | 79 | 195 | 8.0 | 9.0 | 0.00 | 0.00 | 0.00 | 34 | 1018.6 |
| 20260503181137 | 78 | 223 | 11.0 | 13.0 | 0.00 | 0.00 | 0.00 | 37 | 1018.8 |
| 20260503180634 | 78 | 222 | 7.0 | 8.0 | 0.00 | 0.00 | 0.00 | 38 | 1018.9 |
| 20260503180132 | 78 | 225 | 12.0 | 14.0 | 0.00 | 0.00 | 0.00 | 38 | 1018.8 |
| 20260503175629 | 78 | 228 | 11.0 | 13.0 | 0.00 | 0.00 | 0.00 | 40 | 1018.9 |
| 20260503175126 | 78 | 238 | 9.0 | 10.0 | 0.00 | 0.00 | 0.00 | 41 | 1019.0 |
| 20260503174622 | 78 | 242 | 12.0 | 14.0 | 0.00 | 0.00 | 0.00 | 41 | 1019.1 |
| 20260503174120 | 77 | 221 | 9.0 | 11.0 | 0.00 | 0.00 | 0.00 | 40 | 1019.3 |
| 20260503173614 | 77 | 228 | 11.0 | 13.0 | 0.00 | 0.00 | 0.00 | 44 | 1019.2 |
| 20260503173111 | 78 | 230 | 11.0 | 13.0 | 0.00 | 0.00 | 0.00 | 42 | 1019.3 |
| 20260503172608 | 77 | 235 | 9.0 | 9.0 | 0.00 | 0.00 | 0.00 | 43 | 1019.3 |
| 20260503172106 | 77 | 237 | 10.0 | 13.0 | 0.00 | 0.00 | 0.00 | 44 | 1019.4 |
| 20260503171602 | 76 | 242 | 10.0 | 11.0 | 0.00 | 0.00 | 0.00 | 43 | 1019.4 |
| 20260503171059 | 77 | 213 | 12.0 | 14.0 | 0.00 | 0.00 | 0.00 | 44 | 1019.4 |
| 20260503170555 | 76 | 229 | 11.0 | 11.0 | 0.00 | 0.00 | 0.00 | 46 | 1019.4 |
| 20260503150948 | 71 | 227 | 10.0 | 11.0 | 0.00 | 0.00 | 0.00 | 54 | 1020.6 |
| 20260503150445 | 70 | 226 | 9.0 | 11.0 | 0.00 | 0.00 | 0.00 | 55 | 1020.6 |
| 20260503131338 | 61 | 216 | 2.0 | 2.0 | 0.00 | 0.00 | 0.00 | 73 | 1020.0 |
| 20260503130835 | 61 | 216 | 4.0 | 5.0 | 0.00 | 0.00 | 0.00 | 72 | 1020.0 |
| 20260503130332 | 61 | 170 | 0.0 | 1.0 | 0.00 | 0.00 | 0.00 | 74 | 1020.2 |
| 20260503110726 | 58 | 194 | 2.0 | 2.0 | 0.00 | 0.00 | 0.00 | 75 | 1018.9 |
| 20260503110223 | 59 | 184 | 0.0 | 0.0 | 0.00 | 0.00 | 0.00 | 74 | 1018.9 |
| 20260503100149 | 59 | 181 | 2.0 | 2.0 | 0.00 | 0.00 | 0.00 | 72 | 1018.8 |
| 20260503090109 | 59 | 165 | 0.0 | 0.0 | 0.00 | 0.00 | 0.00 | 71 | 1018.6 |
| 20260503081544 | 62 | 200 | 3.0 | 3.0 | 0.00 | 0.00 | 0.00 | 68 | 1018.8 |
| 20260503081042 | 62 | 217 | 5.0 | 7.0 | 0.00 | 0.00 | 0.00 | 68 | 1018.6 |
| 20260503080538 | 62 | 220 | 5.0 | 5.0 | 0.00 | 0.00 | 0.00 | 67 | 1018.8 |
| 20260503072512 | 62 | 217 | 6.0 | 7.0 | 0.00 | 0.00 | 0.00 | 65 | 1018.9 |
| 20260503072009 | 63 | 209 | 4.0 | 5.0 | 0.00 | 0.00 | 0.00 | 65 | 1019.0 |
| 20260503071506 | 63 | 206 | 3.0 | 3.0 | 0.00 | 0.00 | 0.00 | 65 | 1018.9 |
| 20260503071001 | 63 | 193 | 1.0 | 1.0 | 0.00 | 0.00 | 0.00 | 66 | 1019.1 |
| 20260503070459 | 62 | 218 | 3.0 | 3.0 | 0.00 | 0.00 | 0.00 | 66 | 1019.3 |
| 20260503054917 | 64 | 221 | 3.0 | 3.0 | 0.00 | 0.00 | 0.00 | 64 | 1019.1 |
| 20260503054413 | 64 | 207 | 3.0 | 3.0 | 0.00 | 0.00 | 0.00 | 61 | 1019.1 |
| 20260503053911 | 63 | 215 | 4.0 | 5.0 | 0.00 | 0.00 | 0.00 | 61 | 1019.1 |
| 20260503053409 | 63 | 217 | 4.0 | 5.0 | 0.00 | 0.00 | 0.00 | 63 | 1019.3 |
| 20260503052905 | 64 | 229 | 5.0 | 6.0 | 0.00 | 0.00 | 0.00 | 62 | 1018.9 |
| 20260503052403 | 62 | 224 | 5.0 | 6.0 | 0.00 | 0.00 | 0.00 | 62 | 1019.2 |
| 20260503051859 | 62 | 220 | 4.0 | 5.0 | 0.00 | 0.00 | 0.00 | 64 | 1019.2 |
| 20260503051355 | 62 | 199 | 3.0 | 3.0 | 0.00 | 0.00 | 0.00 | 65 | 1019.2 |
| 20260503050852 | 62 | 205 | 3.0 | 3.0 | 0.00 | 0.00 | 0.00 | 64 | 1019.1 |
| 20260503050348 | 62 | 218 | 4.0 | 5.0 | 0.00 | 0.00 | 0.00 | 65 | 1019.2 |
| 20260503045846 | 61 | 215 | 4.0 | 5.0 | 0.00 | 0.00 | 0.00 | 66 | 1019.1 |
| 20260503045343 | 61 | 213 | 4.0 | 5.0 | 0.00 | 0.00 | 0.00 | 66 | 1019.3 |
| 20260503044839 | 62 | 210 | 4.0 | 5.0 | 0.00 | 0.00 | 0.00 | 65 | 1019.2 |
| 20260503044337 | 62 | 209 | 4.0 | 5.0 | 0.00 | 0.00 | 0.00 | 63 | 1018.9 |